[[{"header":{"parameterUnit":"m.s-1","parameterCategory":1,"la1":30.2991,"la2":30.254,"lo1":-89.0895,"lo2":-89.0444,"dy":0.0017,"dx":0.0017,"nx":28,"ny":28,"refTime":"2024-03-20T21:00:00:Z","depth":0,"parameterNumber":2,"parameterNumberName":"U-component_of_WINDS"},"data":[0,0,0,0,0,0,0,0,0,0,0,0,0,0,0,0,0,0,0,0,0,0,0,0,0,0,0,0,0,0,0,0,0,0,0,0,0,0,0,0,0,0,0,0,0,0,0,0,0,0,0,0,0,0,0,0,0,0,1.5135,1.5136,0,1.521,1.5211,1.5212,1.5193,1.5191,1.519,1.5189,1.5265,1.5269,1.5272,0,0,0,0,0,0,0,0,0,0,0,0,0,1.4973,1.4977,1.5135,1.5136,1.5137,1.521,1.5211,1.5212,1.5193,1.5191,1.519,1.5188,1.5264,1.5268,1.5272,0,0,0,0,0,0,0,0,0,0,0,0,0,1.5046,1.4978,1.5135,1.5136,1.5137,1.521,1.5211,1.5213,1.5194,1.5191,1.5189,1.5187,1.5263,1.5268,1.5273,1.5349,0,0,1.5289,1.5291,0,0,0,0,0,0,0,0,1.5042,1.5052,1.5135,1.5137,1.5138,1.519,1.5182,1.5258,1.5194,1.5172,1.5188,1.5186,1.5242,1.5249,1.5268,1.5352,1.5356,1.5289,1.5292,1.5294,1.5296,0,0,0,0,0,0,0,1.5037,1.5048,1.5165,1.5137,1.5138,1.5133,1.514,1.5197,1.5219,1.5174,1.5173,1.5182,1.5242,1.5263,1.5269,1.5357,1.5289,1.5293,1.5297,1.5299,1.5504,1.5506,0,0,0,0,0,0,1.5031,1.5044,1.5163,1.5167,1.5083,1.5137,1.5146,1.5175,1.5218,1.5222,1.5184,1.5181,1.5255,1.5263,1.5272,1.5361,1.5294,1.5299,1.5302,1.5502,1.5505,1.5507,0,0,0,0,0,0,1.5027,1.5042,1.516,1.5105,1.512,1.5142,1.5176,1.5178,1.5199,1.5225,1.5229,1.5201,1.5254,1.5265,1.5329,1.5364,1.5301,1.5306,1.5499,1.5503,1.5506,1.5542,0,0,0,0,0,0,1.5023,1.5041,1.507,1.5106,1.5123,1.5216,1.5178,1.5181,1.5207,1.5204,1.5242,1.5246,1.5253,1.5321,1.5334,1.537,1.531,1.5496,1.5501,1.5505,1.5538,1.5546,1.5554,0,0,0,0,0,1.5017,1.5078,1.5072,1.5086,1.5161,1.5218,1.5228,1.5234,1.521,1.524,1.5256,1.5245,1.5358,1.5328,1.5342,1.538,1.5494,1.5499,1.5504,1.5534,1.5545,1.5553,0,0,0,0,0,0,1.5047,1.5083,1.5077,1.5151,1.5182,1.5215,1.5253,1.5245,1.5283,1.5279,1.5284,1.5293,1.5358,1.5376,1.5342,1.5454,1.5422,1.5431,1.544,1.545,1.5458,1.5452,1.5314,0,0,0,0,0,1.5062,1.5106,1.5135,1.5198,1.5213,1.523,1.5256,1.5257,1.5289,1.5302,1.5324,1.5355,1.5397,1.5425,1.5465,1.554,1.5547,1.5573,1.5581,1.5587,1.5594,1.5632,1.5643,1.5525,1.5525,1.5525,0,0,1.5093,1.5119,1.5146,1.5204,1.5228,1.5272,1.5241,1.5291,1.5323,1.531,1.5371,1.5388,1.5423,1.5492,1.5524,1.5509,1.5628,1.5594,1.5599,1.5602,1.5638,1.5649,1.5659,1.5529,1.5528,1.5527,0,0,1.5173,1.5198,1.5251,1.5275,1.5312,1.5322,1.5335,1.5369,1.5379,1.5441,1.5431,1.5469,1.5543,1.5567,1.5589,1.5675,1.5665,1.5688,1.5729,1.5766,1.5775,1.5784,1.5812,1.5822,1.5695,1.5695,1.5695,0,1.5208,1.5275,1.528,1.5329,1.5354,1.5343,1.5396,1.5419,1.5467,1.5484,1.5466,1.5556,1.5579,1.5652,1.5673,1.5692,1.5705,1.5684,1.5774,1.5782,1.579,1.5817,1.5828,1.5698,1.5698,1.5697,1.5697,0,1.5314,1.5361,1.54,1.5444,1.5474,1.5525,1.5536,1.5565,1.5564,1.5576,1.5637,1.5664,1.5708,1.5726,1.5726,1.5799,1.5788,1.5772,1.574,1.5803,1.5828,1.5839,1.5701,1.57,1.57,1.5699,0,0,1.5416,1.5461,1.5475,1.5494,1.5532,1.5567,1.5617,1.566,1.5683,1.5716,1.5756,1.5817,1.5802,1.5827,1.5829,1.5862,1.5925,1.5842,1.5843,1.5854,1.6003,1.6013,1.6025,1.5919,1.5921,1.5923,1.5999,0,1.5497,1.5584,1.5589,1.5668,1.5709,1.5698,1.5741,1.5768,1.578,1.5816,1.5829,1.5871,1.5849,1.5864,1.5896,1.591,1.5955,1.5905,1.5955,1.5956,1.5945,1.6039,1.6051,1.6122,1.601,1.6011,1.6013,0,1.5604,1.5638,1.5721,1.575,1.5768,1.5806,1.5844,1.5879,1.5909,1.5915,1.5942,1.5939,1.5988,1.5955,1.6021,1.5987,1.6008,1.6018,1.6021,1.6025,1.5987,1.6043,1.6145,1.6155,1.6029,1.6028,1.6026,0,1.5666,1.5734,1.5791,1.5808,1.5844,1.5871,1.5887,1.5915,1.5939,1.5972,1.5988,1.6027,1.6047,1.6077,1.6084,1.606,1.6149,1.6118,1.6154,1.6154,1.6173,1.6171,1.6277,1.6189,1.6189,1.6189,1.6188,0,1.5756,1.5806,1.5819,1.5854,1.5909,1.5913,1.5968,1.5982,1.6006,1.6043,1.6037,1.6071,1.6079,1.6114,1.612,1.6172,1.6183,1.6188,1.6188,1.6187,1.6186,1.62,1.6194,1.6191,1.6191,1.619,1.619,0,1.5835,1.5846,1.5907,1.5935,1.5943,1.5983,1.6007,1.6039,1.605,1.6096,1.6107,1.6123,1.6164,1.6174,1.6224,1.6227,1.6289,1.6286,1.6278,1.6278,1.6312,1.6308,1.643,1.6445,1.6349,1.6349,1.635,0,1.589,1.5928,1.596,1.5984,1.6001,1.604,1.6064,1.6069,1.6095,1.613,1.6158,1.6198,1.6231,1.6297,1.6312,1.6349,1.6346,1.6386,1.6351,1.6348,1.6343,1.634,1.6343,1.6392,1.6393,1.6394,1.6394,0,1.5987,1.599,1.6025,1.6061,1.609,1.6119,1.6147,1.6167,1.6176,1.6204,1.6246,1.6271,1.632,1.6359,1.6396,1.6412,1.6404,1.6405,1.6415,1.6413,1.6407,1.6408,1.6294,1.6402,1.6401,1.6401,1.64,1.64,1.6054,1.6086,1.6113,1.6152,1.6173,1.6198,1.6229,1.6243,1.6277,1.6317,1.6319,1.6363,1.6389,1.6437,1.6455,1.6489,1.6477,1.6492,1.6496,1.6499,1.6501,1.6402,1.6496,1.6496,1.6496,1.6496,1.6496,0,1.6148,1.6164,1.62,1.6238,1.6268,1.6258,1.6287,1.6312,1.6352,1.6377,1.6408,1.6454,1.6491,1.6509,1.6546,1.657,1.6567,1.6579,1.6576,1.6579,1.6511,1.6497,1.658,1.658,1.658,1.658,1.658,1.658,1.6201,1.6253,1.6259,1.6321,1.6337,1.638,1.6397,1.642,1.6439,1.6491,1.6522,1.6533,1.6555,1.6592,1.6625,1.6629,1.6642,1.6656,1.6658,1.6593,1.6585,1.6576,1.6564,1.6659,1.6659,1.6723,1.6724,1.6724]},{"header":{"parameterUnit":"m.s-1","parameterCategory":1,"la1":30.2991,"la2":30.254,"lo1":-89.0895,"lo2":-89.0444,"dy":0.0017,"dx":0.0017,"nx":28,"ny":28,"refTime":"2024-03-20T21:00:00:Z","depth":0,"parameterNumber":3,"parameterNumberName":"V-component_of_WINDS"},"data":[0,0,0,0,0,0,0,0,0,0,0,0,0,0,0,0,0,0,0,0,0,0,0,0,0,0,0,0,0,0,0,0,0,0,0,0,0,0,0,0,0,0,0,0,0,0,0,0,0,0,0,0,0,0,0,0,0,0,-0.356,-0.356,0,-0.3537,-0.3537,-0.3537,-0.3551,-0.3552,-0.3553,-0.3553,-0.3529,-0.3527,-0.3526,0,0,0,0,0,0,0,0,0,0,0,0,0,-0.3616,-0.3615,-0.356,-0.356,-0.3559,-0.3537,-0.3537,-0.3536,-0.3551,-0.3552,-0.3553,-0.3554,-0.3529,-0.3528,-0.3526,0,0,0,0,0,0,0,0,0,0,0,0,0,-0.3592,-0.3615,-0.356,-0.3564,-0.3564,-0.3537,-0.3537,-0.3536,-0.3551,-0.3552,-0.3553,-0.3554,-0.353,-0.3528,-0.3526,-0.3493,0,0,-0.352,-0.3519,0,0,0,0,0,0,0,0,-0.3594,-0.359,-0.3564,-0.3564,-0.3564,-0.3548,-0.3548,-0.3522,-0.3551,-0.3556,-0.3553,-0.3554,-0.3534,-0.3532,-0.3525,-0.3492,-0.3491,-0.352,-0.3519,-0.3518,-0.3517,0,0,0,0,0,0,0,-0.3595,-0.3591,-0.3551,-0.3563,-0.3563,-0.3567,-0.3565,-0.3543,-0.354,-0.3556,-0.3557,-0.3554,-0.3534,-0.3527,-0.3525,-0.3491,-0.352,-0.3518,-0.3517,-0.3516,-0.3431,-0.343,0,0,0,0,0,0,-0.3597,-0.3592,-0.3552,-0.355,-0.3582,-0.3565,-0.3563,-0.3552,-0.354,-0.3539,-0.3553,-0.3554,-0.353,-0.3527,-0.3524,-0.3486,-0.3518,-0.3516,-0.3515,-0.3432,-0.3431,-0.343,0,0,0,0,0,0,-0.3598,-0.3593,-0.3552,-0.3572,-0.3567,-0.3563,-0.3551,-0.3551,-0.3544,-0.3538,-0.3537,-0.3546,-0.3531,-0.3527,-0.3501,-0.3485,-0.3515,-0.3513,-0.3434,-0.3432,-0.3431,-0.3409,0,0,0,0,0,0,-0.3599,-0.3593,-0.358,-0.3571,-0.3566,-0.353,-0.355,-0.355,-0.3541,-0.3543,-0.3531,-0.353,-0.3531,-0.3504,-0.3499,-0.3483,-0.3512,-0.3435,-0.3433,-0.3431,-0.3411,-0.3407,-0.3403,0,0,0,0,0,-0.3601,-0.3575,-0.358,-0.3575,-0.355,-0.3529,-0.3526,-0.3527,-0.3539,-0.3527,-0.3523,-0.3531,-0.3488,-0.3501,-0.3496,-0.3479,-0.3436,-0.3434,-0.3431,-0.3413,-0.3408,-0.3403,0,0,0,0,0,0,-0.3581,-0.3573,-0.3579,-0.3549,-0.3539,-0.3531,-0.3515,-0.3522,-0.3508,-0.3511,-0.3513,-0.3511,-0.3484,-0.3479,-0.3494,-0.3448,-0.3464,-0.346,-0.3452,-0.3447,-0.3443,-0.3445,-0.351,0,0,0,0,0,-0.3573,-0.3557,-0.3551,-0.3525,-0.352,-0.3519,-0.351,-0.3512,-0.3502,-0.3498,-0.3493,-0.3483,-0.3468,-0.3457,-0.3442,-0.3411,-0.3409,-0.3397,-0.3393,-0.339,-0.3387,-0.3371,-0.3366,-0.3422,-0.3422,-0.3422,0,0,-0.3557,-0.3551,-0.354,-0.3521,-0.3514,-0.3497,-0.3515,-0.3496,-0.3484,-0.3495,-0.3471,-0.3467,-0.3456,-0.3428,-0.3415,-0.3423,-0.3371,-0.3387,-0.3384,-0.3383,-0.3368,-0.3362,-0.3358,-0.342,-0.3421,-0.3421,0,0,-0.3518,-0.3511,-0.349,-0.3483,-0.3473,-0.3472,-0.3467,-0.3458,-0.3456,-0.3432,-0.3441,-0.3426,-0.3399,-0.3392,-0.3384,-0.3345,-0.3352,-0.334,-0.3319,-0.3304,-0.33,-0.3296,-0.3282,-0.3277,-0.3337,-0.3337,-0.3337,0,-0.3498,-0.3474,-0.3477,-0.3459,-0.345,-0.3461,-0.3439,-0.3432,-0.3418,-0.3412,-0.3421,-0.3389,-0.3382,-0.3353,-0.3343,-0.3337,-0.3331,-0.3341,-0.33,-0.3296,-0.3293,-0.328,-0.3275,-0.3336,-0.3336,-0.3336,-0.3336,0,-0.345,-0.3433,-0.3417,-0.3404,-0.3394,-0.3373,-0.3374,-0.3364,-0.3368,-0.3367,-0.3343,-0.3336,-0.332,-0.3314,-0.3317,-0.3285,-0.329,-0.33,-0.3316,-0.3286,-0.3274,-0.3269,-0.3334,-0.3334,-0.3335,-0.3335,0,0,-0.3396,-0.3387,-0.3381,-0.3376,-0.3367,-0.3353,-0.3334,-0.332,-0.3311,-0.3301,-0.3285,-0.3263,-0.3273,-0.3264,-0.3267,-0.3253,-0.3224,-0.3265,-0.3265,-0.3258,-0.319,-0.3183,-0.3177,-0.3229,-0.3228,-0.3227,-0.3191,0,-0.3358,-0.3324,-0.3328,-0.3296,-0.3281,-0.3292,-0.3276,-0.3268,-0.3267,-0.3254,-0.3253,-0.3237,-0.325,-0.3245,-0.3233,-0.323,-0.321,-0.3233,-0.3214,-0.3213,-0.3216,-0.317,-0.3162,-0.3128,-0.3186,-0.3185,-0.3185,0,-0.3307,-0.3297,-0.3264,-0.3258,-0.3252,-0.3237,-0.3225,-0.3212,-0.3205,-0.3205,-0.3197,-0.3202,-0.3183,-0.3201,-0.3175,-0.319,-0.3183,-0.3181,-0.318,-0.3178,-0.3197,-0.3167,-0.3117,-0.3112,-0.3177,-0.3178,-0.3178,0,-0.3272,-0.3249,-0.3227,-0.3222,-0.3215,-0.3204,-0.3201,-0.3194,-0.3186,-0.3176,-0.3171,-0.3158,-0.3151,-0.3142,-0.3144,-0.3156,-0.3118,-0.3135,-0.3118,-0.3118,-0.3109,-0.3109,-0.3057,-0.3104,-0.3104,-0.3105,-0.3105,0,-0.3227,-0.3207,-0.3211,-0.3197,-0.3175,-0.318,-0.3158,-0.3156,-0.3151,-0.3137,-0.3146,-0.3132,-0.3136,-0.3124,-0.3125,-0.3104,-0.3101,-0.3101,-0.3102,-0.31,-0.31,-0.3095,-0.3097,-0.3103,-0.3103,-0.3104,-0.3104,0,-0.3184,-0.3186,-0.3162,-0.3158,-0.3157,-0.3141,-0.3137,-0.3125,-0.3125,-0.3108,-0.3104,-0.3104,-0.309,-0.3091,-0.3075,-0.3076,-0.305,-0.3054,-0.3053,-0.3054,-0.3036,-0.3038,-0.2979,-0.2971,-0.3024,-0.3023,-0.3023,0,-0.3155,-0.314,-0.3135,-0.3127,-0.3123,-0.3109,-0.3102,-0.3106,-0.3098,-0.3089,-0.3078,-0.3064,-0.3054,-0.3031,-0.3029,-0.3017,-0.3021,-0.3001,-0.3019,-0.3018,-0.3021,-0.3021,-0.302,-0.2997,-0.2996,-0.2996,-0.2995,0,-0.3104,-0.3107,-0.3095,-0.3085,-0.3076,-0.3067,-0.306,-0.3053,-0.3057,-0.3047,-0.3033,-0.3025,-0.301,-0.2996,-0.2985,-0.2982,-0.2989,-0.299,-0.2985,-0.2983,-0.2984,-0.2984,-0.3043,-0.2991,-0.2992,-0.2992,-0.2992,-0.2992,-0.3068,-0.3055,-0.305,-0.3038,-0.3033,-0.3026,-0.3015,-0.3014,-0.3003,-0.2991,-0.2994,-0.2979,-0.2973,-0.2959,-0.2955,-0.2943,-0.295,-0.2943,-0.2941,-0.2939,-0.2938,-0.2986,-0.2941,-0.2941,-0.2941,-0.2941,-0.2941,0,-0.3018,-0.3016,-0.3004,-0.2994,-0.2985,-0.2994,-0.2987,-0.2978,-0.2964,-0.2958,-0.2949,-0.2933,-0.2921,-0.2919,-0.2908,-0.2899,-0.2902,-0.2895,-0.2896,-0.2895,-0.2932,-0.2937,-0.2893,-0.2893,-0.2893,-0.2893,-0.2893,-0.2893,-0.2991,-0.297,-0.2972,-0.295,-0.2948,-0.2933,-0.2929,-0.2923,-0.2919,-0.2901,-0.2891,-0.2891,-0.2887,-0.2876,-0.2865,-0.2865,-0.286,-0.2853,-0.2854,-0.2888,-0.2892,-0.2897,-0.2902,-0.2852,-0.2852,-0.2819,-0.2818,-0.2818]}]]